Location: Ch�risy
(50.2331°N, 2.9131°E)
Time: 23:08:01
(UTC+00:00)

SKYMED 2 - Pass Details

Date: 17 January 2021
Orbit: 621 x 623 km, 97.9° (Epoch: 01 March)

Event Time Altitude Azimuth Distance (km) Brightness Sun altitude
Exits shadow 17:51:12 - 18° (NNE) 2,352 6.2 -14.5°
Reaches altitude 10° 17:52:03 10° 19° (NNE) 2,006 5.9 -14.7°
Maximum altitude 17:56:23 64° 101° (E) 694 3.5 -15.3°
Drops below altitude 10° 18:00:41 10° 184° (S) 1,988 6.4 -16.0°
Sets 18:02:53 0° 187° (S) 2,890 7.3 -16.3°
